Location: Newark
(48.3747°N, 2.1544°E)
Time: 04:34:02
(UTC+00:00)

N. Korean satellite - Visible Passes

Search period start: 24 January 2020 00:00
Search period end: 03 February 2020 00:00
Orbit: 454 x 507 km, 97.2° (Epoch: 23 January)

Date Brightness Start Highest point End Pass type
(mag) Time Alt. Az. Time Alt. Az. Time Alt. Az.
24 Jan 9.9 04:37:34 10° ENE 04:39:13 13° E 04:40:53 10° ESE visible
24 Jan 6.6 06:09:26 10° N 06:12:54 52° WNW 06:16:24 10° SSW visible
25 Jan 6.7 05:43:52 10° NNE 05:47:26 76° ESE 05:51:03 10° S visible
25 Jan 9.9 17:58:13 10° WSW 17:59:48 13° W 18:01:24 10° WNW visible
26 Jan 8.1 05:18:32 10° NNE 05:21:53 37° E 05:25:15 10° SSE visible
26 Jan 9.2 17:31:16 10° SSW 17:34:06 24° W 17:36:57 10° NW visible
27 Jan 9.4 04:53:33 10° NE 04:56:14 20° E 04:58:56 10° SE visible
27 Jan 7.2 06:26:28 10° N 06:29:43 33° WNW 06:32:59 10° SW visible
28 Jan 10.2 04:29:50 10° ENE 04:30:30 10° E 04:31:11 10° E visible
28 Jan 6.5 06:00:43 10° N 06:04:18 66° WNW 06:07:54 10° SSW visible
29 Jan 7.1 05:35:13 10° NNE 05:38:48 60° ESE 05:42:24 10° S visible
29 Jan 9.7 17:48:53 10° SW 17:51:04 16° W 17:53:15 10° NW visible
30 Jan 8.6 05:09:58 10° NNE 05:13:12 30° E 05:16:28 10° SSE visible
30 Jan 7.8 06:43:37 10° NNW 06:46:28 22° WNW 06:49:21 10° WSW visible
30 Jan 8.8 17:22:18 10° SSW 17:25:22 30° W 17:28:29 10° NNW visible
31 Jan 9.7 04:45:11 10° NE 04:47:32 16° E 04:49:53 10° SE visible
31 Jan 7.0 06:17:40 10° N 06:21:06 41° WNW 06:24:34 10° SW visible
01 Feb 6.5 05:52:01 10° NNE 05:55:39 84° WNW 05:59:19 10° SSW visible
01 Feb 10.4 18:07:37 10° W 18:08:04 10° W 18:08:31 10° W visible
02 Feb 7.7 05:26:35 10° NNE 05:30:08 47° E 05:33:41 10° S visible
02 Feb 9.6 17:39:44 10° SW 17:42:18 20° W 17:44:55 10° NW visible
